When you browse on this site, cookies collect data to enhance your experience and personalize the content and advertising you see.
Visit our Privacy Policy to learn more. By continuing to use the site, you agree to this use of cookies and data.
  • In Sweden
  • List of Countries
  • For 7 days
  • Water Temperature
  • Weather Map
  • Weather Widgets
  • user-avatar
    Login

    Hourly Weather Pereyaslav-Hmelnickij

    Today, 7 June, Sunday

    Time Temperature Precipitation Wind Pressure Humidity
    00:00 +18°C° 0 mm 2 mps 751 mmHg 86%
    01:00 +18°C° 0 mm 2 mps 752 mmHg 86%
    02:00 +17°C° 0 mm 2 mps 752 mmHg 85%
    03:00 +17°C° 0 mm 2 mps 752 mmHg 85%
    04:00 +17°C° 0 mm 2 mps 752 mmHg 85%
    05:00 +17°C° 0 mm 2 mps 752 mmHg 85%
    06:00 +18°C° 0 mm 2 mps 752 mmHg 82%
    07:00 +20°C° 0 mm 2 mps 752 mmHg 78%
    08:00 +21°C° 0 mm 3 mps 752 mmHg 74%
    09:00 +24°C° 0 mm 3 mps 752 mmHg 72%
    10:00 +25°C° 0 mm 3 mps 752 mmHg 69%
    11:00 +26°C° 0 mm 4 mps 752 mmHg 66%
    12:00 +26°C° 0 mm 4 mps 752 mmHg 64%
    13:00 +27°C° 0 mm 4 mps 753 mmHg 63%
    14:00 +27°C° 0 mm 5 mps 753 mmHg 62%
    15:00 +27°C° 0 mm 4 mps 752 mmHg 65%
    16:00 +27°C° 0 mm 4 mps 752 mmHg 69%
    17:00 +26°C° 0 mm 3 mps 752 mmHg 73%
    18:00 +25°C° 0 mm 3 mps 752 mmHg 77%
    19:00 +22°C° 0 mm 3 mps 752 mmHg 81%
    20:00 +21°C° 0 mm 3 mps 752 mmHg 86%
    21:00 +20°C° 0 mm 3 mps 752 mmHg 85%
    22:00 +19°C° 0 mm 3 mps 752 mmHg 84%
    23:00 +19°C° 0 mm 3 mps 752 mmHg 83%

    Tomorrow, 8 June, Monday

    Time Temperature Precipitation Wind Pressure Humidity
    00:00 +18°C° 0 mm 3 mps 752 mmHg 84%
    01:00 +18°C° 0 mm 2 mps 752 mmHg 84%
    02:00 +18°C° 0 mm 2 mps 752 mmHg 84%
    03:00 +18°C° 0 mm 2 mps 752 mmHg 86%
    04:00 +18°C° 0 mm 3 mps 752 mmHg 88%
    05:00 +17°C° 0 mm 3 mps 752 mmHg 89%
    06:00 +19°C° 0 mm 3 mps 752 mmHg 85%
    07:00 +21°C° 0 mm 4 mps 752 mmHg 81%
    08:00 +23°C° 0 mm 4 mps 752 mmHg 77%
    09:00 +25°C° 0 mm 4 mps 752 mmHg 73%
    10:00 +26°C° 0 mm 5 mps 752 mmHg 68%
    11:00 +27°C° 0 mm 5 mps 752 mmHg 64%
    12:00 +27°C° 0 mm 5 mps 752 mmHg 63%
    13:00 +28°C° 0 mm 5 mps 751 mmHg 62%
    14:00 +28°C° 0 mm 5 mps 751 mmHg 61%
    15:00 +28°C° 0 mm 5 mps 751 mmHg 63%
    16:00 +28°C° 0 mm 4 mps 751 mmHg 66%
    17:00 +28°C° 0 mm 4 mps 750 mmHg 69%
    18:00 +26°C° 0 mm 4 mps 750 mmHg 74%
    19:00 +25°C° 0 mm 3 mps 750 mmHg 78%
    20:00 +22°C° 0 mm 3 mps 750 mmHg 83%
    21:00 +21°C° 0 mm 4 mps 750 mmHg 84%
    22:00 +21°C° 0 mm 4 mps 751 mmHg 84%
    23:00 +20°C° 0 mm 4 mps 751 mmHg 85%

    Day after tomorrow, 9 June, Tuesday

    Time Temperature Precipitation Wind Pressure Humidity
    00:00 +19°C° 0 mm 4 mps 751 mmHg 86%
    01:00 +19°C° 0 mm 3 mps 751 mmHg 87%
    02:00 +18°C° 0 mm 3 mps 751 mmHg 88%
    03:00 +18°C° 0 mm 3 mps 751 mmHg 88%
    04:00 +18°C° 0 mm 3 mps 751 mmHg 88%
    05:00 +18°C° 0 mm 3 mps 751 mmHg 88%
    06:00 +20°C° 0 mm 3 mps 751 mmHg 84%
    07:00 +21°C° 0 mm 4 mps 751 mmHg 80%
    08:00 +23°C° 0 mm 4 mps 751 mmHg 76%
    09:00 +25°C° 0 mm 5 mps 751 mmHg 72%
    10:00 +27°C° 0 mm 5 mps 751 mmHg 67%
    11:00 +28°C° 0 mm 5 mps 751 mmHg 63%
    12:00 +28°C° 0 mm 5 mps 751 mmHg 62%
    13:00 +29°C° 0 mm 6 mps 751 mmHg 61%
    14:00 +29°C° 0 mm 6 mps 750 mmHg 60%
    15:00 +29°C° 0 mm 5 mps 750 mmHg 63%
    16:00 +29°C° 0 mm 4 mps 750 mmHg 66%
    17:00 +29°C° 0 mm 3 mps 750 mmHg 69%
    18:00 +27°C° 0 mm 3 mps 750 mmHg 73%
    19:00 +26°C° 0 mm 3 mps 750 mmHg 76%
    20:00 +24°C° 0 mm 3 mps 750 mmHg 80%
    21:00 +22°C° 0 mm 4 mps 750 mmHg 80%
    22:00 +22°C° 0 mm 4 mps 751 mmHg 81%
    23:00 +21°C° 0 mm 4 mps 751 mmHg 82%

    10 June, Wednesday

    Time Temperature Precipitation Wind Pressure Humidity
    00:00 +21°C° 0 mm 3 mps 751 mmHg 82%
    01:00 +20°C° 0 mm 3 mps 751 mmHg 82%
    02:00 +19°C° 0 mm 3 mps 751 mmHg 82%
    03:00 +19°C° 0 mm 3 mps 751 mmHg 83%
    04:00 +19°C° 0 mm 3 mps 751 mmHg 84%
    05:00 +19°C° 0 mm 3 mps 750 mmHg 85%
    06:00 +20°C° 0 mm 3 mps 751 mmHg 82%
    07:00 +22°C° 0 mm 3 mps 751 mmHg 78%
    08:00 +25°C° 0 mm 4 mps 751 mmHg 74%
    09:00 +26°C° 0 mm 4 mps 751 mmHg 71%
    10:00 +27°C° 0 mm 4 mps 751 mmHg 67%
    11:00 +28°C° 0 mm 4 mps 751 mmHg 63%
    12:00 +29°C° 0 mm 4 mps 751 mmHg 63%
    13:00 +29°C° 0 mm 4 mps 751 mmHg 63%
    14:00 +29°C° 0 mm 4 mps 750 mmHg 62%
    15:00 +29°C° 0 mm 4 mps 750 mmHg 65%
    16:00 +29°C° 0 mm 4 mps 750 mmHg 67%
    17:00 +29°C° 0 mm 3 mps 750 mmHg 70%
    18:00 +28°C° 0 mm 3 mps 750 mmHg 73%
    19:00 +26°C° 0 mm 3 mps 750 mmHg 77%
    20:00 +25°C° 0 mm 3 mps 750 mmHg 81%
    21:00 +24°C° 0 mm 3 mps 750 mmHg 82%
    22:00 +22°C° 0 mm 3 mps 750 mmHg 83%
    23:00 +22°C° 0 mm 3 mps 750 mmHg 85%

    11 June, Thursday

    Time Temperature Precipitation Wind Pressure Humidity
    00:00 +21°C° 0 mm 3 mps 750 mmHg 86%
    01:00 +21°C° 0 mm 3 mps 750 mmHg 87%
    02:00 +20°C° 0 mm 3 mps 750 mmHg 88%
    03:00 +20°C° 0 mm 3 mps 749 mmHg 87%
    04:00 +20°C° 0 mm 3 mps 749 mmHg 86%
    05:00 +20°C° 0 mm 3 mps 749 mmHg 85%
    06:00 +21°C° 0 mm 3 mps 749 mmHg 81%
    07:00 +24°C° 0 mm 3 mps 749 mmHg 77%
    08:00 +25°C° 0 mm 3 mps 749 mmHg 73%
    09:00 +27°C° 0 mm 3 mps 749 mmHg 70%
    10:00 +28°C° 0 mm 4 mps 749 mmHg 66%
    11:00 +29°C° 0 mm 4 mps 749 mmHg 62%
    12:00 +30°C° 0 mm 4 mps 749 mmHg 60%
    13:00 +30°C° 0 mm 4 mps 749 mmHg 58%
    14:00 +32°C° 0 mm 4 mps 749 mmHg 55%
    15:00 +32°C° 0 mm 4 mps 748 mmHg 60%
    16:00 +30°C° 0 mm 4 mps 748 mmHg 64%
    17:00 +30°C° 0 mm 3 mps 748 mmHg 69%
    18:00 +28°C° 0.1 mm 3 mps 748 mmHg 76%
    19:00 +26°C° 0.1 mm 3 mps 748 mmHg 82%
    20:00 +25°C° 0.1 mm 3 mps 748 mmHg 89%
    21:00 +24°C° 0 mm 3 mps 748 mmHg 90%
    22:00 +24°C° 0 mm 3 mps 748 mmHg 91%
    23:00 +22°C° 0 mm 3 mps 748 mmHg 93%

    12 June, Friday

    Time Temperature Precipitation Wind Pressure Humidity
    00:00 +21°C° 0 mm 3 mps 748 mmHg 92%
    01:00 +21°C° 0 mm 3 mps 747 mmHg 91%
    02:00 +20°C° 0 mm 3 mps 747 mmHg 90%
    03:00 +20°C° 0 mm 3 mps 747 mmHg 90%
    04:00 +20°C° 0 mm 3 mps 747 mmHg 90%
    05:00 +20°C° 0 mm 3 mps 747 mmHg 89%
    06:00 +21°C° 0 mm 3 mps 747 mmHg 85%
    07:00 +24°C° 0 mm 3 mps 747 mmHg 80%
    08:00 +26°C° 0 mm 3 mps 747 mmHg 75%
    09:00 +27°C° 0 mm 4 mps 747 mmHg 72%
    10:00 +28°C° 0 mm 4 mps 747 mmHg 68%
    11:00 +29°C° 0 mm 5 mps 747 mmHg 65%
    12:00 +30°C° 0 mm 5 mps 747 mmHg 61%
    13:00 +30°C° 0 mm 6 mps 747 mmHg 58%
    14:00 +32°C° 0 mm 6 mps 747 mmHg 54%
    15:00 +32°C° 0 mm 5 mps 747 mmHg 58%
    16:00 +30°C° 0 mm 5 mps 747 mmHg 62%
    17:00 +30°C° 0 mm 4 mps 746 mmHg 66%
    18:00 +28°C° 0 mm 4 mps 747 mmHg 69%
    19:00 +26°C° 0 mm 4 mps 747 mmHg 73%
    20:00 +25°C° 0 mm 4 mps 747 mmHg 77%
    21:00 +23°C° 0 mm 4 mps 747 mmHg 78%
    22:00 +22°C° 0 mm 4 mps 747 mmHg 79%
    23:00 +21°C° 0 mm 4 mps 747 mmHg 80%
    Show more